User: anonymous   Login
Location: Ballingbuur
(53.0000°N, 5.7667°E)
Time: 02:27:55
(UTC+00:00)
Language:

Cosmos 2263 Rocket - Orbit

View from above orbital plane
View from above orbital plane
View from above satellite
View from above satellite

Ground track
Ground track

The orbit data is extracted from the following two-line orbital elements,

1 22803U 93059B   21059.61435174 -.00000193  00000-0 -72312-4 0  9993
2 22803  70.9890 279.4272 0015440 131.1819 229.0638 14.16833531419583
Epoch (UTC): 28 February 2021 14:44:39
Eccentricity: 0.0015440
inclination: 70.9890°
perigee height: 825 km
apogee height: 847 km
right ascension of ascending node: 279.4272°
argument of perigee: 131.1819°
revolutions per day: 14.16833531
mean anomaly at epoch: 229.0638°
orbit number at epoch: 41958

The dashed part of the orbit path shows where the satellite is in the earth's shadow,  

DLR